Showing default

FLOCK 4BE 35, 60558

Orbit data source: Space-Track

FLOCK 4BE 35, 60558 is a payload satellite owned by Planet (US) in SSO that was launched on Fri, 16 Aug 2024 UTC via an FALCON 9 launch vehicle from the Air Force Western Test Range (AFWTR). Payload-class satellites include a variety of spacecraft equipped with specific instruments for various scientific and technological missions. These include communications satellites like Starlink; space stations such as the ISS; scientific satellites like the Hubble; Earth observation satellites from companies like Planet Labs, Umbra, and HawkEye 360; GPS; miniature CubeSats for education and research; and military/defense satellites.

Loading next visibility...
Identifier
60558, 2024-149CU
Orbit
SSO
Country
Flag of USUS
Related business
Manufacturer
Planet
Mission
Non-operational Commercial Imaging
Bus & Motor
CUBESAT 3U, Unknown motor
Mass
5.7 kg wet, 5.7 kg dry
Launch date (UTC)
2024-08-16 (2 years ago)
Launch vehicle
FALCON 9
Launch site
Air Force Western Test Range (AFWTR)
Object type
Payload
Rocket body
Debris
Shape & HBR
Box + 2 Pan, 1.0 m
Radar Cross Section
0.072 m², Medium (>0.1 m² and < 1m²)

Expand to show TLE details & history
Last TLE update: 10 hours ago

TLE from 10 hours ago
0 FLOCK 4BE 35
1 60558U 24149CU  26144.84412657  .00148386  00000-0  17184-2 0  9991
2 60558  97.3694 230.0991 0002479 255.9992 104.0990 15.61335382 98817
Epoch: 2026-05-24T20:15Z
TLE epoch observation values (Epoch: 2026-05-24T20:15:32.535Z)
Latitude
-0.00003°
Longitude
43.7731°
Altitude
387.355 km
Speed
7.677 km/s
True Right ascension
15h 20m 23s
True Declination
0° 00' 00"
Sunlit
Object was in full shadow at epoch
Visualization orbit readout
Latitude
Unknown
Longitude
Unknown
Altitude
Unknown
Speed
Unknown
Apparent Right ascension
Unknown
Apparent Declination
Unknown
Sunlit
N/A
Visualization observer readout
Local Sidereal Time
15:28:44
Azimuth
Unknown
Elevation
Unknown
Doppler factor
Unknown
Orbital elements
Apogee altitude
382.384 km
Perigee altitude
379.033 km
Semi-major axis
6,758.845 km
Eccentricity
0.00025
Inclination
97.3694°
RAAN
230.0991°
Arg. of periapsis
255.9992°
True anomaly
104.12655°
Mean anomaly
104.099°
Eccentric anomaly
104.11277°
Mean motion
3.90602 °/min
Orbital period
92.17 mins
BSTAR
0.0017184
Loading maneuver chart data...
Computing Atmospheric mass density...
Loading historical data...
Loading historical data...
Loading historical data...
Loading historical data...
Loading historical data...
Loading historical data...
Loading historical data...

Documentation

Showing up to 5 results
|